[[{"header":{"parameterUnit":"m.s-1","parameterCategory":1,"la1":30.2991,"la2":30.254,"lo1":-89.0895,"lo2":-89.0444,"dy":0.0017,"dx":0.0017,"nx":28,"ny":28,"refTime":"2024-04-30T21:00:00:Z","depth":0,"parameterNumber":2,"parameterNumberName":"U-component_of_WINDS"},"data":[0,0,0,0,0,0,0,0,0,0,0,0,0,0,0,0,0,0,0,0,0,0,0,0,0,0,0,0,0,0,0,0,0,0,0,0,0,0,0,0,0,0,0,0,0,0,0,0,0,0,0,0,0,0,0,0,0,0,-1.9991,-1.9991,0,-1.998,-1.998,-1.998,-1.9925,-1.9924,-1.9923,-1.9922,-1.9912,-1.9913,-1.9914,0,0,0,0,0,0,0,0,0,0,0,0,0,-1.9966,-1.9966,-1.9991,-1.9991,-1.9991,-1.998,-1.998,-1.998,-1.9926,-1.9924,-1.9922,-1.9921,-1.9912,-1.9913,-1.9914,0,0,0,0,0,0,0,0,0,0,0,0,0,-1.9968,-1.9967,-1.9991,-1.9962,-1.996,-1.998,-1.998,-1.998,-1.9926,-1.9924,-1.9922,-1.992,-1.9912,-1.9913,-1.9915,-1.9963,0,0,-1.9919,-1.992,0,0,0,0,0,0,0,0,-1.9968,-1.9969,-1.9967,-1.9964,-1.9961,-1.9952,-1.9968,-1.9974,-1.9926,-1.9939,-1.9921,-1.9919,-1.9927,-1.9927,-1.993,-1.9962,-1.9962,-1.9919,-1.992,-1.9921,-1.9921,0,0,0,0,0,0,0,-1.9968,-1.9969,-1.9987,-1.9967,-1.9963,-1.995,-1.9949,-1.9969,-1.9944,-1.9938,-1.9934,-1.9933,-1.9926,-1.9929,-1.9929,-1.9962,-1.9919,-1.9921,-1.9921,-1.9922,-2.0034,-2.0036,0,0,0,0,0,0,-1.9972,-1.9969,-1.9987,-1.9986,-1.996,-1.9952,-1.995,-1.9957,-1.9944,-1.994,-1.9935,-1.993,-1.9927,-1.9928,-1.9929,-1.9984,-1.9921,-1.9922,-1.9923,-2.0031,-2.0034,-2.0036,0,0,0,0,0,0,-1.9971,-1.9974,-1.9988,-1.9977,-1.9978,-1.9955,-1.9963,-1.9958,-1.9961,-1.9942,-1.9937,-1.9942,-1.9925,-1.9927,-1.9955,-1.9983,-1.9923,-1.9924,-2.0029,-2.0032,-2.0035,-2.0096,0,0,0,0,0,0,-1.9971,-1.9974,-1.9992,-1.9978,-1.9978,-2.0013,-1.9965,-1.9959,-1.9963,-1.9958,-1.9947,-1.9944,-1.9924,-1.9953,-1.9956,-1.9984,-1.9925,-2.0026,-2.003,-2.0034,-2.0091,-2.0101,-2.0109,0,0,0,0,0,-1.997,-2.001,-1.9993,-1.9995,-2.0,-2.0015,-2.0016,-1.9991,-1.9966,-1.9984,-1.9971,-1.9944,-1.9979,-1.9956,-1.9959,-1.9988,-2.0024,-2.0029,-2.0034,-2.0087,-2.0099,-2.0108,0,0,0,0,0,0,-2.0028,-2.0007,-1.9988,-2.0025,-2.0022,-2.0006,-2.0028,-2.0004,-2.001,-2.0004,-1.9975,-1.9973,-2.0005,-1.9999,-1.9974,-2.0034,-1.9997,-2.0003,-2.0037,-2.0048,-2.0056,-2.0057,-1.9926,0,0,0,0,0,-2.0045,-2.0059,-2.004,-2.0074,-2.0073,-2.0051,-2.0057,-2.0038,-2.0034,-2.0033,-2.0023,-2.0021,-2.0031,-2.0039,-2.0048,-2.009,-2.0087,-2.0111,-2.012,-2.0127,-2.0133,-2.0155,-2.0165,-2.0052,-2.0052,-2.0052,0,0,-2.0081,-2.0071,-2.0081,-2.0085,-2.0081,-2.0096,-2.005,-2.0068,-2.0079,-2.0036,-2.0062,-2.0054,-2.005,-2.0085,-2.01,-2.0082,-2.0163,-2.0133,-2.0139,-2.0141,-2.0161,-2.0171,-2.0181,-2.0055,-2.0054,-2.0054,0,0,-2.0153,-2.0147,-2.0174,-2.0171,-2.0165,-2.0149,-2.0156,-2.0143,-2.0136,-2.0161,-2.0129,-2.0142,-2.0161,-2.0159,-2.0161,-2.0232,-2.0208,-2.0236,-2.0282,-2.0304,-2.0313,-2.032,-2.0346,-2.0355,-2.0241,-2.0241,-2.0242,0,-2.0198,-2.0219,-2.0191,-2.0211,-2.0214,-2.0175,-2.0202,-2.02,-2.0198,-2.0201,-2.018,-2.0202,-2.0197,-2.0231,-2.0248,-2.0251,-2.0258,-2.0237,-2.0313,-2.0321,-2.0328,-2.0352,-2.0362,-2.0245,-2.0245,-2.0244,-2.0244,0,-2.0275,-2.029,-2.0313,-2.031,-2.0315,-2.0339,-2.0316,-2.0324,-2.0305,-2.0293,-2.0319,-2.0311,-2.0317,-2.0324,-2.0306,-2.0355,-2.0344,-2.0319,-2.0281,-2.0343,-2.0365,-2.0374,-2.025,-2.0249,-2.0248,-2.0247,0,0,-2.0384,-2.0366,-2.0375,-2.0373,-2.0363,-2.0374,-2.0396,-2.0402,-2.041,-2.0409,-2.0427,-2.0444,-2.042,-2.0422,-2.0404,-2.0423,-2.048,-2.0395,-2.0394,-2.0411,-2.0534,-2.0554,-2.0565,-2.0463,-2.0465,-2.0466,-2.0535,0,-2.0453,-2.0489,-2.0465,-2.0505,-2.0519,-2.0481,-2.0501,-2.0497,-2.0486,-2.0496,-2.0483,-2.0496,-2.0463,-2.0464,-2.0481,-2.0469,-2.0504,-2.0464,-2.048,-2.0481,-2.0482,-2.0576,-2.0597,-2.0662,-2.0543,-2.0545,-2.0546,0,-2.0539,-2.0542,-2.0583,-2.057,-2.0575,-2.0592,-2.0595,-2.0605,-2.06,-2.0591,-2.0593,-2.0569,-2.059,-2.0553,-2.0582,-2.0555,-2.056,-2.0556,-2.0557,-2.0558,-2.0517,-2.058,-2.0682,-2.0692,-2.0559,-2.0558,-2.0557,0,-2.0615,-2.0629,-2.0655,-2.0655,-2.064,-2.0654,-2.0648,-2.0641,-2.0646,-2.0649,-2.0651,-2.0657,-2.066,-2.0665,-2.0644,-2.0619,-2.0676,-2.0637,-2.0669,-2.0669,-2.0683,-2.0682,-2.0788,-2.0686,-2.0686,-2.0686,-2.0685,0,-2.0695,-2.0722,-2.0689,-2.0705,-2.0734,-2.0706,-2.0736,-2.0727,-2.0721,-2.0735,-2.0703,-2.0717,-2.0688,-2.0699,-2.0683,-2.071,-2.0711,-2.0704,-2.07,-2.0707,-2.0708,-2.0711,-2.0706,-2.0688,-2.0688,-2.0687,-2.0687,0,-2.0786,-2.0764,-2.079,-2.0774,-2.0771,-2.0793,-2.0779,-2.0794,-2.078,-2.0798,-2.0801,-2.078,-2.0791,-2.077,-2.078,-2.0768,-2.0806,-2.0794,-2.0807,-2.0804,-2.0837,-2.0835,-2.0948,-2.0962,-2.0851,-2.0852,-2.0853,0,-2.0838,-2.0858,-2.0843,-2.085,-2.0846,-2.0858,-2.0862,-2.0835,-2.0841,-2.0837,-2.0852,-2.0861,-2.0866,-2.0887,-2.0873,-2.088,-2.0868,-2.0907,-2.0869,-2.0876,-2.0869,-2.0868,-2.087,-2.0915,-2.0917,-2.0918,-2.0919,0,-2.0935,-2.0923,-2.093,-2.0933,-2.0939,-2.094,-2.094,-2.0947,-2.0919,-2.0927,-2.0938,-2.0942,-2.0951,-2.0961,-2.0964,-2.0959,-2.0935,-2.0931,-2.0938,-2.0947,-2.0954,-2.0951,-2.0829,-2.0928,-2.0927,-2.0927,-2.0926,-2.0926,-2.1008,-2.1023,-2.1015,-2.1024,-2.102,-2.102,-2.1033,-2.102,-2.1029,-2.1033,-2.1017,-2.1032,-2.1026,-2.1028,-2.1026,-2.1037,-2.102,-2.1031,-2.1034,-2.1038,-2.1043,-2.0952,-2.1038,-2.1038,-2.1037,-2.1037,-2.1037,0,-2.1103,-2.1095,-2.1104,-2.1103,-2.111,-2.1085,-2.1083,-2.1091,-2.1104,-2.11,-2.1106,-2.1119,-2.1127,-2.1114,-2.112,-2.1132,-2.1121,-2.1135,-2.1134,-2.1133,-2.1058,-2.1051,-2.1144,-2.1144,-2.1144,-2.1143,-2.1143,-2.1143,-2.1153,-2.1178,-2.1165,-2.1188,-2.118,-2.1194,-2.1195,-2.1195,-2.1192,-2.1207,-2.1214,-2.1204,-2.1196,-2.1202,-2.1209,-2.1205,-2.1209,-2.1227,-2.1219,-2.1149,-2.1138,-2.1128,-2.1121,-2.1228,-2.1228,-2.1293,-2.1293,-2.1294]},{"header":{"parameterUnit":"m.s-1","parameterCategory":1,"la1":30.2991,"la2":30.254,"lo1":-89.0895,"lo2":-89.0444,"dy":0.0017,"dx":0.0017,"nx":28,"ny":28,"refTime":"2024-04-30T21:00:00:Z","depth":0,"parameterNumber":3,"parameterNumberName":"V-component_of_WINDS"},"data":[0,0,0,0,0,0,0,0,0,0,0,0,0,0,0,0,0,0,0,0,0,0,0,0,0,0,0,0,0,0,0,0,0,0,0,0,0,0,0,0,0,0,0,0,0,0,0,0,0,0,0,0,0,0,0,0,0,0,3.0199,3.0199,0,3.02,3.02,3.02,3.0148,3.0147,3.0146,3.0144,3.0145,3.0146,3.0148,0,0,0,0,0,0,0,0,0,0,0,0,0,3.0151,3.0153,3.0199,3.0199,3.0199,3.02,3.02,3.02,3.0149,3.0147,3.0145,3.0144,3.0145,3.0146,3.0148,0,0,0,0,0,0,0,0,0,0,0,0,0,3.0164,3.0153,3.0199,3.0173,3.0171,3.02,3.02,3.02,3.0149,3.0147,3.0145,3.0143,3.0144,3.0146,3.0148,3.0201,0,0,3.0154,3.0155,0,0,0,0,0,0,0,0,3.0164,3.0166,3.0177,3.0175,3.0173,3.0172,3.0184,3.02,3.015,3.0157,3.0144,3.0142,3.0156,3.0156,3.0161,3.0201,3.0201,3.0154,3.0155,3.0156,3.0157,0,0,0,0,0,0,0,3.0163,3.0166,3.0199,3.0177,3.0175,3.0162,3.0161,3.0186,3.0168,3.0157,3.0153,3.0154,3.0154,3.0159,3.0161,3.0201,3.0154,3.0156,3.0157,3.0158,3.0285,3.0287,0,0,0,0,0,0,3.0166,3.0165,3.0199,3.0199,3.0163,3.0164,3.0164,3.0174,3.0168,3.0165,3.0155,3.0151,3.0157,3.0159,3.0161,3.0223,3.0156,3.0158,3.0159,3.0283,3.0286,3.0288,0,0,0,0,0,0,3.0165,3.0169,3.0199,3.0181,3.0184,3.0167,3.0179,3.0175,3.0181,3.0167,3.0163,3.0164,3.0156,3.0158,3.0192,3.0222,3.0159,3.016,3.028,3.0284,3.0287,3.0347,0,0,0,0,0,0,3.0164,3.0169,3.0189,3.0182,3.0185,3.023,3.0181,3.0177,3.0184,3.0179,3.0174,3.0172,3.0154,3.0189,3.0194,3.0224,3.0162,3.0277,3.0282,3.0286,3.0342,3.0352,3.0361,0,0,0,0,0,3.0162,3.0206,3.019,3.0195,3.021,3.0232,3.0234,3.0213,3.0187,3.0207,3.0198,3.0172,3.0218,3.0193,3.0197,3.0229,3.0275,3.0281,3.0285,3.0338,3.035,3.036,0,0,0,0,0,0,3.0216,3.0204,3.0187,3.023,3.0233,3.0223,3.0248,3.0226,3.0236,3.0231,3.0204,3.0204,3.0242,3.0238,3.0211,3.028,3.0242,3.0248,3.0281,3.0292,3.0301,3.0301,3.0164,0,0,0,0,0,3.0233,3.0252,3.0241,3.028,3.0282,3.0265,3.0274,3.0258,3.0259,3.026,3.0253,3.0256,3.0271,3.0281,3.0294,3.0342,3.034,3.0366,3.0375,3.0382,3.0388,3.0413,3.0424,3.0304,3.0304,3.0304,0,0,3.0268,3.0264,3.0278,3.0291,3.0291,3.0311,3.0266,3.0289,3.0304,3.0263,3.0295,3.029,3.0291,3.0332,3.035,3.033,3.0421,3.0389,3.0395,3.0396,3.0419,3.0431,3.0441,3.0308,3.0307,3.0307,0,0,3.0343,3.0342,3.0374,3.0375,3.0376,3.0365,3.0373,3.0367,3.0363,3.0394,3.0364,3.0381,3.0407,3.0409,3.0414,3.049,3.0466,3.0495,3.0542,3.0567,3.0577,3.0585,3.0613,3.0623,3.0501,3.0501,3.0501,0,3.0386,3.0416,3.0394,3.0419,3.0426,3.039,3.0423,3.0425,3.043,3.0435,3.0414,3.0447,3.0445,3.0486,3.0505,3.0509,3.0518,3.0495,3.0577,3.0585,3.0593,3.0619,3.0629,3.0504,3.0504,3.0504,3.0503,0,3.047,3.0491,3.0517,3.0523,3.0533,3.0562,3.0544,3.0556,3.0539,3.053,3.0563,3.0559,3.0571,3.058,3.0564,3.0619,3.0607,3.0582,3.0543,3.0608,3.0632,3.0642,3.0509,3.0508,3.0507,3.0506,0,0,3.0578,3.0572,3.0582,3.0585,3.0583,3.0599,3.0627,3.0639,3.065,3.0655,3.0677,3.0701,3.0678,3.0683,3.0667,3.0689,3.075,3.0661,3.066,3.0678,3.0811,3.083,3.0842,3.0734,3.0736,3.0737,3.0811,0,3.065,3.0697,3.0678,3.0727,3.0746,3.0713,3.0737,3.0739,3.0731,3.0747,3.0738,3.0755,3.0723,3.0726,3.0747,3.0738,3.0776,3.0733,3.0755,3.0756,3.0756,3.0854,3.0875,3.0944,3.082,3.0822,3.0823,0,3.0741,3.075,3.0801,3.0797,3.0804,3.0826,3.0836,3.0851,3.0853,3.0845,3.0852,3.0831,3.0858,3.082,3.0856,3.0827,3.0835,3.0832,3.0834,3.0836,3.0793,3.0859,3.0966,3.0977,3.0837,3.0836,3.0835,0,3.0815,3.084,3.0874,3.0877,3.0873,3.089,3.0889,3.0888,3.0897,3.0905,3.0911,3.0922,3.0929,3.0938,3.0921,3.0895,3.096,3.092,3.0955,3.0956,3.097,3.097,3.1081,3.0976,3.0975,3.0975,3.0975,0,3.0898,3.0931,3.0908,3.0928,3.0964,3.0942,3.0977,3.0972,3.0973,3.0992,3.0964,3.0982,3.0958,3.0975,3.0961,3.0994,3.0997,3.0992,3.0988,3.0995,3.0996,3.1,3.0994,3.0978,3.0977,3.0977,3.0976,0,3.0987,3.0973,3.1008,3.1001,3.1,3.1027,3.1021,3.104,3.1031,3.1056,3.106,3.1045,3.1063,3.1047,3.1064,3.1055,3.1099,3.1088,3.1098,3.1095,3.1131,3.1128,3.1249,3.1264,3.1149,3.115,3.1151,0,3.1041,3.1066,3.1062,3.1073,3.1074,3.1092,3.1101,3.108,3.1091,3.1095,3.1113,3.1129,3.114,3.117,3.1161,3.1174,3.1163,3.1205,3.1165,3.1171,3.1164,3.1163,3.1166,3.1213,3.1214,3.1215,3.1216,0,3.1139,3.1131,3.1145,3.1157,3.1168,3.1177,3.1183,3.1193,3.1172,3.1185,3.1203,3.1212,3.123,3.1246,3.1256,3.1255,3.1232,3.1229,3.1238,3.1245,3.125,3.1248,3.1121,3.1226,3.1225,3.1225,3.1224,3.1224,3.1212,3.1232,3.1233,3.125,3.1252,3.1259,3.1276,3.127,3.1284,3.1297,3.1284,3.1307,3.1308,3.1319,3.1321,3.1338,3.132,3.1333,3.1336,3.134,3.1345,3.1247,3.134,3.1339,3.1339,3.1339,3.1339,0,3.1308,3.1307,3.1323,3.1333,3.1346,3.1324,3.133,3.1342,3.1362,3.1365,3.1377,3.1399,3.1414,3.1406,3.142,3.1435,3.1425,3.1439,3.1438,3.1438,3.136,3.1351,3.1447,3.1447,3.1447,3.1447,3.1447,3.1447,3.136,3.1393,3.1385,3.142,3.1418,3.144,3.1445,3.1451,3.1454,3.1479,3.1492,3.1487,3.1486,3.1499,3.1512,3.1509,3.1516,3.1534,3.1528,3.1454,3.1444,3.1434,3.1425,3.1535,3.1536,3.1605,3.1605,3.1606]}]]